30.06.2024;16:00;92
30.06.2024;15:00;95
30.06.2024;14:00;96
30.06.2024;13:00;100
30.06.2024;12:00;102
30.06.2024;11:00;98
30.06.2024;10:00;99
30.06.2024;09:00;94
30.06.2024;08:00;92
30.06.2024;07:00;86
30.06.2024;06:00;79
30.06.2024;05:00;67
30.06.2024;04:00;49
30.06.2024;03:00;51
30.06.2024;02:00;44
30.06.2024;01:00;53
30.06.2024;00:00;64
29.06.2024;23:00;67
29.06.2024;22:00;72
29.06.2024;21:00;71
29.06.2024;20:00;77
29.06.2024;19:00;97
29.06.2024;18:00;101
29.06.2024;17:00;104
29.06.2024;16:00;100
29.06.2024;15:00;100
29.06.2024;14:00;99
29.06.2024;13:00;100
29.06.2024;12:00;93
29.06.2024;11:00;75
29.06.2024;10:00;60
29.06.2024;09:00;46
29.06.2024;08:00;24
29.06.2024;07:00;14
29.06.2024;06:00;15
29.06.2024;05:00;20
29.06.2024;04:00;25
29.06.2024;03:00;38
29.06.2024;02:00;38
29.06.2024;01:00;44
29.06.2024;00:00;57
28.06.2024;23:00;63
28.06.2024;22:00;76
28.06.2024;21:00;70
28.06.2024;20:00;73
28.06.2024;19:00;101
28.06.2024;18:00;92
28.06.2024;17:00;88
